#timestamp,LO_Frequency,Hit,StdDev 
1580846415.8,286047002.0,N
1580846435.6,286046999.9,N
1580846455.4,286047002.4,N
1580846475.3,286046999.8,N
1580846495.1,286047000.1,N
1580846515.9,286047000.5,N
1580846535.7,286047001.2,N
1580846555.5,286046998.1,N
1580846575.4,286047001.0,N
1580846595.2,286047001.0,N
1580846615.0,286046998.3,N
1580846616.0,286046998.3,N
1580846635.8,286047000.7,N
1580846655.6,286046998.2,N
1580846675.5,286046999.9,N
1580846695.3,286047001.7,N
1580846715.1,286047001.6,N
1580846735.9,286047003.3,N
1580846755.7,286047003.9,N
1580846775.6,286047002.3,N
1580846795.4,286047001.0,N
1580846815.2,286047001.0,N
1580846835.1,286047000.5,N
1580846836.0,286047000.5,N
1580846855.8,286047002.5,N
1580846875.6,286047002.5,N
1580846895.5,286047001.9,N
1580846915.3,286047003.9,N
1580846935.2,286047003.2,N
1580846955.9,286047003.0,N
1580846975.7,286047002.7,N
1580846995.6,286047003.4,N
1580847015.4,286047003.4,N
1580847035.2,286047005.6,Y
1580847055.1,286047002.6,P
1580847056.0,286047002.6,P
1580847075.8,286047003.5,P
1580847095.7,286047004.3,Y
1580847115.5,286046998.9,P
1580847135.3,286046999.1,N
1580847155.2,286046997.1,N
1580847175.0,286046997.4,N
1580847175.9,286046997.4,N
1580847195.8,286046998.0,N
1580847215.6,286046997.8,N
1580847235.4,286046995.3,N
1580847255.3,286046997.3,N
1580847275.1,286046999.2,N
1580847295.8,286046997.0,N
1580847315.7,286046996.6,N
1580847335.5,286046998.9,N
1580847355.4,286046998.1,N
1580847375.2,286046999.6,N
1580847395.0,286046998.2,N
1580847395.9,286046998.2,N
1580847415.8,286047000.5,N
1580847435.6,286046996.5,N
1580847455.4,286046999.3,N
1580847475.3,286046997.8,N
1580847495.1,286046995.6,N
1580847515.9,286046997.8,N
1580847535.7,286046997.7,N
1580847555.5,286046996.5,N
1580847575.4,286046996.6,N
1580847595.2,286046996.9,N
1580847615.0,286046999.1,N
1580847616.0,286046999.1,N
1580847635.8,286046997.0,N
1580847655.6,286046997.1,N
1580847675.5,286046998.7,N
1580847695.3,286046996.9,N
1580847715.1,286046996.6,N
1580847735.9,286046996.5,N
1580847755.7,286046999.6,N
1580847775.6,286046998.5,N
1580847795.4,286046997.7,N
1580847815.2,286046996.7,N
1580847835.1,286046999.1,N
1580847836.0,286046999.1,N
1580847855.8,286046996.5,N
1580847875.6,286046997.0,N
1580847895.5,286046997.4,N
1580847915.3,286046997.9,N
1580847935.2,286046993.9,Y
1580847955.9,286046997.0,P
1580847975.7,286046998.9,P
1580847995.6,286046998.6,N
1580848015.4,286046999.1,N
1580848035.2,286046999.4,N
1580848055.1,286046998.5,N
1580848056.0,286046998.5,N
1580848075.8,286047000.2,N
1580848095.7,286046999.7,N
1580848115.5,286046999.7,N
1580848135.3,286046999.9,N
1580848155.2,286046998.6,N
1580848175.0,286047000.9,N
1580848175.9,286047000.9,N
1580848195.8,286047002.7,N
1580848215.6,286047001.8,N
1580848235.4,286047005.9,Y
1580848255.3,286047003.9,P
1580848275.1,286047002.1,N
1580848295.9,286047000.1,N
1580848315.7,286047001.3,N
1580848335.5,286047004.2,N
1580848355.4,286047004.1,N
1580848375.2,286047000.4,N
1580848395.0,286047001.2,N
1580848396.0,286047001.2,N
1580848415.8,286047000.9,N
1580848435.6,286046998.2,N
1580848455.5,286047000.9,N
1580848475.3,286046998.9,N
1580848495.2,286047000.2,N
1580848515.9,286047000.2,N
1580848535.7,286047001.3,N
1580848555.6,286047004.2,N
1580848575.4,286047002.7,N
1580848595.2,286047000.5,N
1580848615.1,286047000.1,N
1580848616.0,286047000.1,N
1580848635.8,286047001.7,N
1580848655.7,286047002.5,N
1580848675.5,286047001.4,N
1580848695.3,286047003.7,N
1580848715.2,286047001.7,N
1580848735.0,286047001.8,N
1580848735.9,286047001.8,N
1580848755.8,286047003.7,N
1580848775.6,286047001.6,N
1580848795.4,286047006.0,Y
1580848815.3,286047003.3,P
1580848835.1,286047001.6,N
1580848855.8,286047001.9,N
1580848875.7,286046999.7,N
1580848895.5,286047002.2,N
1580848915.4,286047002.5,N
1580848935.2,286047002.0,N
1580848955.1,286047000.2,N
1580848956.0,286047000.2,N
1580848975.8,286047001.0,N
1580848995.6,286047001.4,N
1580849015.5,286047004.4,Y
1580849035.3,286047002.0,P
1580849055.2,286047000.1,N
1580849075.9,286047001.0,N
1580849095.7,286047001.2,N
1580849115.6,286046999.8,N
1580849135.4,286047002.7,Y
1580849155.3,286047001.0,P
1580849175.1,286046999.5,P
1580849176.0,286046999.5,N
1580849195.8,286046998.4,N
1580849215.7,286046998.1,N
1580849235.5,286047001.2,N
1580849255.3,286047001.1,N
1580849275.2,286047001.0,N
1580849295.0,286047002.8,N
1580849295.9,286047002.8,N
1580849315.8,286047000.7,N
1580849335.6,286047000.7,N
1580849355.4,286047000.8,N
1580849375.3,286047001.2,N
1580849395.1,286047000.5,N
1580849415.8,286047000.1,N
1580849435.7,286047002.0,N
1580849455.5,286047000.5,N
1580849475.4,286046998.4,N
1580849495.2,286046998.3,N
1580849515.0,286046999.6,N
1580849515.9,286046999.6,N
1580849535.8,286047000.9,N
1580849555.6,286046999.1,N
1580849575.5,286047000.6,N
1580849595.3,286047002.3,N
1580849615.1,286047000.9,N
1580849635.9,286047000.9,N
1580849655.7,286047000.6,N
1580849675.6,286047001.6,N
1580849695.4,286046999.7,N
1580849715.2,286047002.6,N
1580849735.1,286047001.5,N
1580849736.0,286047001.5,N
1580849755.8,286047003.7,Y
1580849775.7,286046999.9,P
1580849795.5,286046999.1,N
1580849815.3,286046996.5,P
1580849835.2,286046997.1,N
1580849855.0,286046996.5,N
1580849855.9,286046996.5,N
1580849875.7,286046998.6,N
1580849895.6,286046999.1,N
1580849915.4,286047000.7,N
1580849935.3,286046999.4,N
1580849955.1,286046998.9,N
1580849956.0,286046998.9,N
1580849975.8,286046999.6,N
1580849995.7,286047001.2,N
